| time (UTC) | temp F | wind direction | speed MPH | gust MPH | rain 1hr in | rain 24hr in | rain mn in | humidity % | barometer mb |
| 20260904040041 | 63 | 336 | 0.0 | 3.0 | 0.00 | 0.00 | 0.00 | 45 | 1012.0 |
| 20260904034534 | 64 | 336 | 2.0 | 4.0 | 0.00 | 0.00 | 0.00 | 46 | 1012.1 |
| 20260904033040 | 65 | 349 | 0.0 | 4.0 | 0.00 | 0.00 | 0.00 | 43 | 1011.9 |
| 20260904031536 | 65 | 333 | 1.0 | 6.0 | 0.00 | 0.00 | 0.00 | 43 | 1012.1 |
| 20260904030037 | 66 | 342 | 3.0 | 9.0 | 0.00 | 0.00 | 0.00 | 42 | 1011.9 |
| 20260904024536 | 66 | 336 | 5.0 | 9.0 | 0.00 | 0.00 | 0.00 | 40 | 1011.6 |
| 20260904023039 | 67 | 344 | 5.0 | 10.0 | 0.00 | 0.00 | 0.00 | 40 | 1011.3 |
| 20260904021537 | 67 | 333 | 5.0 | 10.0 | 0.00 | 0.00 | 0.00 | 39 | 1011.2 |
| 20260904020038 | 68 | 345 | 6.0 | 10.0 | 0.00 | 0.00 | 0.00 | 37 | 1011.1 |
| 20260904014611 | 69 | 322 | 4.0 | 9.0 | 0.00 | 0.00 | 0.00 | 38 | 1010.9 |
| 20260904013044 | 70 | 322 | 5.0 | 8.0 | 0.00 | 0.00 | 0.00 | 37 | 1010.9 |
| 20260904011538 | 73 | 332 | 2.0 | 4.0 | 0.00 | 0.00 | 0.00 | 36 | 1010.7 |
| 20260904010035 | 74 | 318 | 4.0 | 9.0 | 0.00 | 0.00 | 0.00 | 31 | 1010.6 |
| 20260904004535 | 75 | 319 | 6.0 | 10.0 | 0.00 | 0.00 | 0.00 | 32 | 1010.4 |
| 20260904003037 | 74 | 296 | 6.0 | 9.0 | 0.00 | 0.00 | 0.00 | 33 | 1010.4 |
| 20260904001538 | 74 | 268 | 4.0 | 9.0 | 0.00 | 0.00 | 0.00 | 32 | 1010.4 |
| 20260904000035 | 74 | 288 | 2.0 | 12.0 | 0.00 | 0.00 | 0.00 | 33 | 1010.4 |
| 20260903234543 | 76 | 315 | 7.0 | 13.0 | 0.00 | 0.00 | 0.00 | 31 | 1010.4 |
| 20260903233036 | 76 | 314 | 6.0 | 13.0 | 0.00 | 0.00 | 0.00 | 32 | 1010.6 |
| 20260903231537 | 75 | 306 | 9.0 | 13.0 | 0.00 | 0.00 | 0.00 | 32 | 1010.7 |
| 20260903230039 | 75 | 275 | 11.0 | 17.0 | 0.00 | 0.00 | 0.00 | 32 | 1010.8 |
| 20260903224537 | 76 | 270 | 10.0 | 18.0 | 0.00 | 0.00 | 0.00 | 30 | 1010.6 |
| 20260903223035 | 74 | 223 | 9.0 | 15.0 | 0.00 | 0.00 | 0.00 | 31 | 1010.5 |
| 20260903221538 | 76 | 286 | 10.0 | 16.0 | 0.00 | 0.00 | 0.00 | 31 | 1010.4 |
| 20260903220037 | 75 | 234 | 7.0 | 16.0 | 0.00 | 0.00 | 0.00 | 32 | 1010.6 |
| 20260903214541 | 76 | 266 | 9.0 | 19.0 | 0.00 | 0.00 | 0.00 | 31 | 1010.5 |
| 20260903213042 | 75 | 263 | 12.0 | 21.0 | 0.00 | 0.00 | 0.00 | 34 | 1010.3 |
| 20260903211555 | 76 | 275 | 12.0 | 19.0 | 0.00 | 0.00 | 0.00 | 30 | 1010.3 |
| 20260903210039 | 76 | 242 | 12.0 | 24.0 | 0.00 | 0.00 | 0.00 | 30 | 1010.6 |
| 20260903204538 | 76 | 239 | 15.0 | 27.0 | 0.00 | 0.00 | 0.00 | 29 | 1010.5 |
| 20260903203036 | 76 | 262 | 12.0 | 26.0 | 0.00 | 0.00 | 0.00 | 30 | 1010.4 |
| 20260903201538 | 75 | 244 | 15.0 | 30.0 | 0.00 | 0.00 | 0.00 | 31 | 1010.7 |
| 20260903200034 | 75 | 259 | 12.0 | 26.0 | 0.00 | 0.00 | 0.00 | 31 | 1010.6 |
| 20260903194536 | 74 | 200 | 11.0 | 31.0 | 0.00 | 0.00 | 0.00 | 32 | 1010.6 |
| 20260903193039 | 74 | 250 | 16.0 | 27.0 | 0.00 | 0.00 | 0.00 | 32 | 1010.8 |
| 20260903191534 | 74 | 271 | 14.0 | 30.0 | 0.00 | 0.00 | 0.00 | 33 | 1010.7 |
| 20260903190038 | 73 | 247 | 16.0 | 26.0 | 0.00 | 0.00 | 0.00 | 33 | 1010.7 |
| 20260903184548 | 73 | 221 | 12.0 | 27.0 | 0.00 | 0.00 | 0.00 | 34 | 1010.7 |
| 20260903183035 | 72 | 200 | 14.0 | 23.0 | 0.00 | 0.00 | 0.00 | 33 | 1010.9 |
| 20260903181533 | 73 | 244 | 14.0 | 25.0 | 0.00 | 0.00 | 0.00 | 34 | 1011.1 |
| 20260903180039 | 71 | 232 | 10.0 | 26.0 | 0.00 | 0.00 | 0.00 | 36 | 1011.1 |
| 20260903174539 | 71 | 225 | 13.0 | 24.0 | 0.00 | 0.00 | 0.00 | 34 | 1011.3 |
| 20260903173039 | 71 | 202 | 16.0 | 24.0 | 0.00 | 0.00 | 0.00 | 35 | 1011.2 |
| 20260903171537 | 70 | 227 | 15.0 | 27.0 | 0.00 | 0.00 | 0.00 | 36 | 1011.2 |
| 20260903170036 | 70 | 199 | 12.0 | 22.0 | 0.00 | 0.00 | 0.00 | 35 | 1011.1 |
| 20260903164536 | 69 | 165 | 15.0 | 25.0 | 0.00 | 0.00 | 0.00 | 36 | 1011.2 |
| 20260903163042 | 69 | 225 | 13.0 | 23.0 | 0.00 | 0.00 | 0.00 | 37 | 1011.0 |
| 20260903161534 | 68 | 197 | 12.0 | 22.0 | 0.00 | 0.00 | 0.00 | 39 | 1011.0 |
| 20260903160038 | 67 | 186 | 10.0 | 21.0 | 0.00 | 0.00 | 0.00 | 42 | 1011.0 |
| 20260903154539 | 65 | 188 | 15.0 | 22.0 | 0.00 | 0.00 | 0.00 | 43 | 1011.1 |
| 20260903153040 | 63 | 211 | 12.0 | 18.0 | 0.00 | 0.00 | 0.00 | 47 | 1011.2 |
| 20260903151535 | 63 | 180 | 7.0 | 14.0 | 0.00 | 0.00 | 0.00 | 48 | 1011.2 |
| 20260903150036 | 63 | 216 | 7.0 | 15.0 | 0.00 | 0.00 | 0.00 | 48 | 1011.3 |
| 20260903144539 | 61 | 202 | 7.0 | 14.0 | 0.00 | 0.00 | 0.00 | 50 | 1011.4 |
| 20260903143040 | 56 | 0 | 0.0 | 3.0 | 0.00 | 0.00 | 0.00 | 63 | 1011.6 |
| 20260903141535 | 55 | 5 | 2.0 | 5.0 | 0.00 | 0.00 | 0.00 | 63 | 1011.5 |
| 20260903140043 | 55 | 0 | 0.0 | 5.0 | 0.00 | 0.00 | 0.00 | 64 | 1011.4 |
| 20260903134535 | 53 | 0 | 0.0 | 5.0 | 0.00 | 0.00 | 0.00 | 66 | 1011.4 |
| 20260903133042 | 54 | 144 | 7.0 | 11.0 | 0.00 | 0.00 | 0.00 | 66 | 1011.3 |
| 20260903131537 | 52 | 0 | 3.0 | 7.0 | 0.00 | 0.00 | 0.00 | 68 | 1011.3 |
| 20260903130044 | 54 | 316 | 0.0 | 4.0 | 0.00 | 0.00 | 0.00 | 63 | 1010.9 |
| 20260903124547 | 55 | 221 | 5.0 | 11.0 | 0.00 | 0.00 | 0.00 | 61 | 1010.7 |
| 20260903123037 | 55 | 275 | 3.0 | 10.0 | 0.00 | 0.00 | 0.00 | 62 | 1010.5 |
| 20260903121539 | 54 | 213 | 3.0 | 8.0 | 0.00 | 0.00 | 0.00 | 63 | 1010.2 |
| 20260903120033 | 54 | 279 | 3.0 | 10.0 | 0.00 | 0.00 | 0.00 | 63 | 1010.3 |
| 20260903114534 | 54 | 167 | 6.0 | 10.0 | 0.00 | 0.00 | 0.00 | 62 | 1010.3 |
| 20260903113036 | 54 | 155 | 6.0 | 11.0 | 0.00 | 0.00 | 0.00 | 62 | 1010.5 |
| 20260903111537 | 51 | 232 | 2.0 | 10.0 | 0.00 | 0.00 | 0.00 | 69 | 1010.6 |
| 20260903110041 | 52 | 159 | 1.0 | 10.0 | 0.00 | 0.00 | 0.00 | 66 | 1010.4 |
| 20260903104536 | 51 | 186 | 1.0 | 3.0 | 0.00 | 0.00 | 0.00 | 68 | 1010.5 |
| 20260903103038 | 52 | 0 | 0.0 | 7.0 | 0.00 | 0.00 | 0.00 | 66 | 1010.3 |
| 20260903101536 | 51 | 146 | 0.0 | 7.0 | 0.00 | 0.00 | 0.00 | 66 | 1010.3 |
| 20260903100038 | 53 | 150 | 4.0 | 6.0 | 0.00 | 0.00 | 0.00 | 63 | 1010.3 |
| 20260903094545 | 54 | 190 | 2.0 | 6.0 | 0.00 | 0.00 | 0.00 | 61 | 1010.2 |
| 20260903093034 | 55 | 197 | 4.0 | 12.0 | 0.00 | 0.00 | 0.00 | 60 | 1009.9 |
| 20260903091540 | 53 | 145 | 4.0 | 10.0 | 0.00 | 0.00 | 0.00 | 62 | 1009.9 |
| 20260903090051 | 52 | 167 | 0.0 | 4.0 | 0.00 | 0.00 | 0.00 | 64 | 1009.7 |
| 20260903084538 | 53 | 182 | 5.0 | 11.0 | 0.00 | 0.00 | 0.00 | 63 | 1009.5 |
| 20260903083054 | 53 | 169 | 5.0 | 9.0 | 0.00 | 0.00 | 0.00 | 62 | 1009.4 |
| 20260903081536 | 53 | 174 | 8.0 | 13.0 | 0.00 | 0.00 | 0.00 | 62 | 1009.6 |
| 20260903080039 | 53 | 144 | 7.0 | 14.0 | 0.00 | 0.00 | 0.00 | 62 | 1009.7 |
| 20260903074541 | 52 | 192 | 4.0 | 13.0 | 0.00 | 0.00 | 0.00 | 64 | 1009.7 |
| 20260903073038 | 50 | 122 | 0.0 | 6.0 | 0.00 | 0.00 | 0.00 | 66 | 1009.8 |
| 20260903071541 | 50 | 161 | 2.0 | 9.0 | 0.00 | 0.00 | 0.00 | 67 | 1009.7 |
| 20260903070039 | 51 | 141 | 5.0 | 10.0 | 0.00 | 0.00 | 0.00 | 64 | 1009.7 |
| 20260903064538 | 53 | 148 | 6.0 | 13.0 | 0.00 | 0.00 | 0.00 | 60 | 1009.7 |
| 20260903063045 | 52 | 167 | 6.0 | 12.0 | 0.00 | 0.00 | 0.00 | 64 | 1009.6 |
| 20260903061539 | 52 | 122 | 5.0 | 10.0 | 0.00 | 0.00 | 0.00 | 62 | 1009.8 |
| 20260903060109 | 54 | 148 | 8.0 | 11.0 | 0.00 | 0.00 | 0.00 | 59 | 1009.9 |
| 20260903054539 | 56 | 161 | 5.0 | 10.0 | 0.00 | 0.00 | 0.00 | 57 | 1009.9 |
| 20260903053038 | 56 | 170 | 5.0 | 10.0 | 0.00 | 0.00 | 0.00 | 56 | 1010.0 |
| 20260903051539 | 56 | 184 | 4.0 | 8.0 | 0.00 | 0.00 | 0.00 | 57 | 1010.2 |
| 20260903050040 | 58 | 184 | 5.0 | 12.0 | 0.00 | 0.00 | 0.00 | 53 | 1010.4 |
| 20260903044540 | 58 | 186 | 5.0 | 11.0 | 0.00 | 0.00 | 0.00 | 53 | 1010.6 |
| 20260903043035 | 59 | 188 | 9.0 | 12.0 | 0.00 | 0.00 | 0.00 | 50 | 1010.8 |
| 20260903041540 | 58 | 191 | 6.0 | 12.0 | 0.00 | 0.00 | 0.00 | 52 | 1010.7 |